Location: *
(51.8167°N, 12.5000°E)
Time: 11:00:43
(UTC+00:00)

COSMOS 2406 - Pass Details

Date: 16 September 2019
Orbit: 842 x 865 km, 71.0° (Epoch: 18 October)

Event Time Altitude Azimuth Distance (km) Brightness Sun altitude
Rises 23:08:57 0° 329° (NNW) 3,457 7.1 -35.7°
Reaches altitude 10° 23:11:26 10° 333° (NNW) 2,518 6.3 -35.7°
Enters shadow 23:15:03 39° 346° (NNW) 1,286 4.4 -35.7°
